Weather History for New Orleans Lakefront, LA

Change the Weather History Date:

Friday, February 1, 2013

  Actual Average Record
Temperature  
Mean Temperature 55 °F 54 °F  
Max Temperature 64 °F 63 °F 82 °F (1957)
Min Temperature 45 °F 46 °F 22 °F (1951)
Degree Days  
Heating Degree Days 10 11  
Month to date heating degree days 10 11  
Since 1 July heating degree days 695 867  
Cooling Degree Days 0 1  
Month to date cooling degree days 0 1  
Year to date cooling degree days 25 17  
Growing Degree Days 8 (Base 50)    
Moisture  
Dew Point 41 °F    
Average Humidity 58    
Maximum Humidity 80    
Minimum Humidity 36    
Precipitation  
Precipitation 0.00 in 0.20 in 4.85 in (1983)
Month to date precipitation 0.00 0.20  
Year to date precipitation 6.59 5.35  
Snow  
Snow 0.00 in - - ()
Month to date snowfall 0.0  
Since 1 July snowfall 0.0  
Snow Depth 0.00 in    
Sea Level Pressure  
Sea Level Pressure 30.34 in    
Wind  
Wind Speed 4 mph (WNW)    
Max Wind Speed 15 mph    
Max Gust Speed 22 mph    
Visibility 10 miles    
Events      
T = Trace of Precipitation, MM = Missing Value Source: NWS Daily Summary

Daily Weather History Graph

Daily Weather History Graph

Search for Another Location

Airport:

Trip Planner

Search our weather history database for the weather conditions in past years. The results will help you decide how hot, cold, wet, or windy it might be!

Date:

Astronomy

Feb. 01, 2013 Rise Set
Actual Time 6:50 AM CST 5:37 PM CST
Civil Twilight 6:25 AM CST 6:02 PM CST
Nautical Twilight 5:56 AM CST 6:31 PM CST
Astronomical Twilight 5:28 AM CST 6:59 PM CST
Moon 11:13 PM CST (2/1) 9:52 AM CST (2/1)
Length of Visible Light 11h 37m
Length of Day
10h 47m
Waning Gibbous, 70% of the Moon is Illuminated
Feb 1
Waning Gibbous
Feb 3
Last Quarter
Feb 10
New
Feb 17
First Quarter
Feb 25
Full

Hourly Weather History & Observations

Time (CST) Temp. Dew Point Humidity Pressure Visibility Wind Dir Wind Speed Gust Speed Precip Events Conditions
12:53 AM 55.9 °F 39.0 °F 53% 30.33 in 10.0 mi West 13.8 mph - N/A   Clear
1:53 AM 55.9 °F 37.9 °F 51% 30.33 in 10.0 mi West 12.7 mph - N/A   Clear
2:53 AM 55.9 °F 39.0 °F 53% 30.31 in 10.0 mi West 9.2 mph - N/A   Clear
3:53 AM 54.0 °F 39.0 °F 57% 30.31 in 10.0 mi WSW 4.6 mph - N/A   Clear
4:53 AM 53.1 °F 39.0 °F 59% 30.32 in 10.0 mi SW 4.6 mph - N/A   Clear
5:53 AM 54.0 °F 39.0 °F 57% 30.35 in 10.0 mi WSW 5.8 mph - N/A   Clear
6:53 AM 55.0 °F 43.0 °F 64% 30.36 in 10.0 mi West 5.8 mph - N/A   Clear
7:53 AM 57.2 °F 41.0 °F 55% 30.40 in 10.0 mi NW 9.2 mph - N/A   Clear
8:53 AM 57.9 °F 39.0 °F 49% 30.39 in 10.0 mi North 12.7 mph - N/A   Clear
9:53 AM 57.0 °F 37.0 °F 47% 30.40 in 10.0 mi NNE 13.8 mph - N/A   Clear
10:53 AM 57.9 °F 37.9 °F 47% 30.40 in 10.0 mi NNE 9.2 mph - N/A   Clear
11:53 AM 59.0 °F 37.9 °F 46% 30.38 in 10.0 mi NNE 5.8 mph - N/A   Clear
12:53 PM 61.0 °F 39.0 °F 44% 30.35 in 10.0 mi NNW 4.6 mph - N/A   Clear
1:53 PM 62.1 °F 41.0 °F 46% 30.34 in 10.0 mi NW 5.8 mph - N/A   Clear
2:53 PM 61.0 °F 42.1 °F 50% 30.32 in 10.0 mi WNW 4.6 mph - N/A   Clear
3:53 PM 63.0 °F 42.1 °F 46% 30.31 in 9.0 mi Calm Calm - N/A   Clear
4:53 PM 63.0 °F 43.0 °F 48% 30.30 in 10.0 mi Calm Calm - N/A   Clear
5:53 PM 61.0 °F 46.9 °F 60% 30.31 in 10.0 mi ENE 4.6 mph - N/A   Clear
6:53 PM 57.9 °F 44.1 °F 60% 30.32 in 10.0 mi SSE 8.1 mph - N/A   Clear
7:53 PM 57.0 °F 44.1 °F 62% 30.32 in 10.0 mi SE 6.9 mph - N/A   Clear
8:53 PM 55.0 °F 44.1 °F 67% 30.33 in 10.0 mi SE 5.8 mph - N/A   Clear
9:53 PM 54.0 °F 44.1 °F 69% 30.33 in 10.0 mi SE 4.6 mph - N/A   Clear
10:53 PM 52.0 °F 43.0 °F 71% 30.32 in 10.0 mi SSE 5.8 mph - N/A   Clear
11:53 PM 53.1 °F 43.0 °F 69% 30.32 in 10.0 mi Calm Calm - N/A   Clear